Regional Weather Roundup
Issued by NWS

Home | Current Version | Previous Version | Graphics & Text | Print | Product List | Glossary On
Versions: 1 2 3 4 5 6 7 8 9 10 11 12 13 14 15 16 17 18 19 20 21 22 23 24 25 26 27 28 29 30 31 32 33 34 35 36 37 38 39 40 41 42 43 44 45 46 47 48 49 50
000
ASUS43 KMKX 140000
RWRWI

WISCONSIN REGIONAL WEATHER ROUNDUP
NATIONAL WEATHER SERVICE MILWAUKEE/SULLIVAN WI
600 PM CST SAT FEB 13 2016

NOTE: "FAIR" INDICATES FEW OR NO CLOUDS BELOW 12,000 FEET WITH NO
SIGNIFICANT WEATHER AND/OR OBSTRUCTIONS TO VISIBILITY.

WIZ001-002-006>008-014>016-023>028-140100-
NORTHWEST WISCONSIN

CITY           SKY/WX    TMP DP  RH WIND       PRES   REMARKS
SUPERIOR ARPT  CLOUDY     9 -10  41 CALM      30.44F
ASHLAND        CLOUDY     2 -13  49 CALM      30.43F
6HR MIN TEMP:   1; 6HR MAX TEMP:  10;

HAYWARD        CLOUDY     4 -12  48 CALM      30.40F
6HR MIN TEMP:   0; 6HR MAX TEMP:   9;

SIREN          CLOUDY     8 -13  39 CALM      30.42F
CUMBERLAND     CLOUDY     3 -15  43 S3        30.40F
RICE LAKE      CLOUDY     5 -14  42 CALM      30.43F
CHETEK         CLOUDY     3 -12  49 CALM      30.43F
LADYSMITH      CLOUDY     6 -11  44 S3        30.43F
EAU CLAIRE     NOT AVBL
MENOMONIE      CLOUDY     7 -14  38 E5        30.46F WCI  -2
NEW RICHMOND   CLOUDY     4 -13  45 CALM      30.43F
OSCEOLA        CLOUDY     5 -10  49 SE6       30.46F WCI  -5
$$

WIZ003>005-009-010-017-018-140100-
NORTH CENTRAL WISCONSIN

CITY           SKY/WX    TMP DP  RH WIND       PRES   REMARKS
MANITOWISH WTR CLOUDY     0 -12  58 CALM      30.35F
ARBOR VITAE    CLEAR      6  -8  53 CALM      30.36S
WOODRUFF       CLEAR      6  -8  53 CALM      30.36S
RHINELANDER    CLEAR      6 -11  45 CALM      30.37S
6HR MIN TEMP:   4; 6HR MAX TEMP:  10;

EAGLE RIVER    CLEAR      6  -8  52 CALM      30.36S
LAND O LAKES   CLEAR      1  -5  74 CALM      30.36S
PHILLIPS       CLOUDY     6 -11  45 CALM      30.37F
TOMAHAWK       CLEAR      3 -12  48 CALM      30.38F
MEDFORD        CLOUDY     2 -10  57 SW3       30.39F
MERRILL        CLOUDY     5  -9  52 SW6       30.41S WCI  -5
$$

WIZ029-030-035-036-043>047-140100-
CENTRAL WISCONSIN

CITY           SKY/WX    TMP DP  RH WIND       PRES   REMARKS
WAUSAU         CLOUDY     5 -10  50 SW5       30.41F WCI  -4
6HR MIN TEMP:   4; 6HR MAX TEMP:   8;

MOSINEE        CLEAR      1  -9  60 SW6       30.43F WCI -10
MARSHFIELD     CLOUDY     5 -12  45 CALM      30.41F
6HR MIN TEMP:   1; 6HR MAX TEMP:   9;

STEVENS POINT  CLOUDY     4 -10  51 CALM      30.45F
WAUPACA        CLEAR      9 -10  41 W5        30.48S WCI   1
WAUTOMA        NOT AVBL
WISC RAPIDS    CLOUDY     5 -11  47 NE5       30.46F WCI  -4
6HR MIN TEMP:   5; 6HR MAX TEMP:  11;

CAMP DOUGLAS   NOT AVBL
$$

WIZ011>013-019>022-031-037>040-048>050-140100-
NORTHEAST WISCONSIN

CITY           SKY/WX    TMP DP  RH WIND       PRES   REMARKS
ANTIGO         CLEAR      3  -9  57 SW8       30.38F WCI -10
SHAWANO        CLEAR     12  -7  42 W5        30.46S WCI   5
OCONTO         CLEAR     10  -6  50 SW7       30.47S WCI  -2
STURGEON BAY   CLEAR      7  -8  51 S6        30.48F WCI  -3
6HR MIN TEMP:   7; 6HR MAX TEMP:  10;

GREEN BAY      CLEAR      8  -6  52 S5        30.48S WCI   0
6HR MIN TEMP:   6; 6HR MAX TEMP:  11;

MANITOWOC      NOT AVBL
APPLETON       PTCLDY     9  -9  43 SW5       30.45S WCI   0
CLINTONVILLE   CLEAR     10  -8  44 W5        30.46S WCI   2
OSHKOSH        CLEAR      6  -8  52 S5        30.48S WCI  -3
6HR MIN TEMP:   5; 6HR MAX TEMP:  11;

$$

WIZ032>034-041-042-053>061-140100-
SOUTHWEST WISCONSIN

CITY           SKY/WX    TMP DP  RH WIND       PRES   REMARKS
LA CROSSE      CLOUDY     5  -9  52 W3        30.48F
6HR MIN TEMP:   5; 6HR MAX TEMP:  14;

SPARTA         CLOUDY     7 -11  44 CALM      30.48F
VIROQUA        CLOUDY     8 -11  42 S3        30.43S
BOSCOBEL       CLOUDY     8  -9  45 S5        30.50F HAZE    WCI   0
6HR MIN TEMP:   8; 6HR MAX TEMP:  16; 6HR PCP: TRACE;

PRAIRIE DU CHI CLOUDY     9  -7  47 S5        30.50F WCI   1
PLATTEVILLE    CLEAR      8  -5  56 CALM      30.47F
$$

WIZ056-057-062-063-064-067-068-140100-
SOUTH CENTRAL WISCONSIN

CITY           SKY/WX    TMP DP  RH WIND       PRES   REMARKS
REEDSBURG      CLOUDY     9 -10  41 CALM      30.47F
BARABOO/DELLS  CLOUDY     8 -12  38 CALM      30.46F
LONE ROCK      NOT AVBL
MINERAL POINT  CLOUDY     9  -8  47 CALM      30.45S
MADISON        CLOUDY     6  -9  50 CALM      30.48F
6HR MIN TEMP:   5; 6HR MAX TEMP:  12;

MIDDLETON      CLOUDY     8  -3  61 CALM      30.48F
WATERTOWN      CLOUDY     8  -6  53 CALM      30.49F
MONROE         CLOUDY    10  -6  48 CALM      30.45F
JANESVILLE     CLEAR     12  -4  48 CALM      30.49F
$$

WIZ051-052-058>065-066-070>072-140100-
SOUTHEAST WISCONSIN

CITY           SKY/WX    TMP DP  RH WIND       PRES   REMARKS
MILWAUKEE      PTCLDY    10  -8  44 NW9       30.51S WCI  -3
6HR MIN TEMP:  10; 6HR MAX TEMP:  13;

WAUKESHA       CLEAR      7  -8  51 NW6       30.49F WCI  -3
MILWAUKEE/TIMM CLEAR      9  -8  47 W6        30.51F WCI  -1
RACINE         CLEAR     10  -8  44 NW5       30.52F WCI   2
6HR MIN TEMP:  10; 6HR MAX TEMP:  13;

BURLINGTON     CLOUDY     7  -8  50 CALM      30.49F
KENOSHA        CLEAR     11  -5  48 NW5       30.50F WCI   3
6HR MIN TEMP:  10; 6HR MAX TEMP:  15;

FOND DU LAC    CLEAR      5  -7  57 S3        30.49S
6HR MIN TEMP:   4; 6HR MAX TEMP:  10; 6HR PCP: TRACE;

SHEBOYGAN      CLEAR      6  -7  54 W3        30.49F
6HR MIN TEMP:   6; 6HR MAX TEMP:   9;

WEST BEND      CLEAR      7  -8  51 CALM      30.48F
JUNEAU         CLOUDY     6  -6  56 SW5       30.49F WCI  -2
$$

LSZ147-162-140100-
LAKE SUPERIOR

STATION/POSITION TIME  TEMP    WIND        PRES    WAVE
                       AIR SEA DIR/SP/G            HT/PER
                 (UTC) (F)     (DEG/KT/KT) (MB)    (FT/S)
DEVILS ISLAND    2300    7     150/  4/  5 1033.3F
SAXON HARBOR     2300    6                 1030.8F
$$

LMZ867-665-643>646-140100-
LAKE MICHIGAN

STATION/POSITION TIME  TEMP    WIND        PRES    WAVE
                       AIR SEA DIR/SP/G            HT/PER
                 (UTC) (F)     (DEG/KT/KT) (MB)    (FT/S)
CHAMBERS ISLAND  2300   10     180/  6/ 11 1031.5S
SISTER BAY       2320   10      10/  5/  7   N/A
ALGOMA LAKESHORE 2311             CALM       N/A
KEWAUNEE LAKESHO 2300    9                 1031.7R
SHEBOYGAN LAKESH 2300    9     290/  9/ 11 1035.1S
PORT WASHINGTON  2340    9     320/  4/  6 1033.9F
MILWAUKEE LAKESH 2310   11     280/  8/ 10   N/A
KENOSHA   LAKESH 2300   13     300/  8/ 10 1033.2S
$$

TC  - TEMPERATURE IN CELSIUS
VSB - VISIBILITY IN STATUTE MILES
WCI - WIND CHILL INDEX
HX  - HEAT INDEX




USA.gov is the U.S. government's official web portal to all federal, state and local government web resources and services.